Location: Beuerbach
(48.1459°N, 10.9174°E)
Time: 01:51:58
(UTC+00:00)

Cosmos 1908 Rocket - Pass Details

Date: 23 May 2024
Orbit: 602 x 628 km, 82.5° (Epoch: 13 June)

Event Time Altitude Azimuth Distance (km) Brightness Sun altitude
Rises 00:13:36 0° 354° (N) 2,922 8.3 -19.9°
Reaches altitude 10° 00:15:55 10° 360° (N) 2,007 7.3 -19.8°
Maximum altitude 00:20:15 51° 76° (ENE) 783 4.2 -19.6°
Enters shadow 00:22:23 27° 140° (SE) 1,196 4.7 -19.5°
